CZ-3B DEB, 42459

Orbit data source: Space-Track

CZ-3B DEB, 42459 is space debris in HEO originally from a launch on Sat, 04 Sep 2010 UTC launched from the Xichang Space Center, China (XSC). Debris objects in space refer to the collection of defunct objects orbiting the Earth. Examples of debris include non-operational satellites, rocket bodies, and fragments generated from explosions, collisions, or faulty payload assembly.

Loading next visibility...
Identifier
42459, 2010-042AA
Orbit
HEO
Country
Flag of CNCN / PRC
Related business
Manufacturer
CALT
Mission
Spacecraft
Bus & Motor
Unknown
Mass
Unknown
Launch date (UTC)
2010-09-04 (15 years ago)
Launch vehicle
Unknown
Launch site
Xichang Space Center, China (XSC)
Object type
Payload
Rocket body
Debris
Shape & HBR
Unknown
Radar Cross Section
Medium (>0.1 m² and <1 m²)

Expand to show TLE details & history
Last TLE update: 5 days ago

TLE from 5 days ago
0 CZ-3B DEB
1 42459U 10042AA  25253.83507551 -.00000236  00000-0  00000-0 0  9994
2 42459  27.7070   1.3365 7272922 173.1144 209.7665  1.87045366 73408
Epoch: 2025-09-10T20:02Z
TLE epoch observation values (Epoch: 2025-09-10T20:02:30.524Z)
Latitude
0.00004°
Longitude
70.59917°
Altitude
40,799.946 km
Speed
1.604 km/s
True Right ascension
00h 05m 19s
True Declination
0° 00' 00"
Sunlit
Object was in daylight at epoch
Visualization orbit readout
Latitude
Unknown
Longitude
Unknown
Altitude
Unknown
Speed
Unknown
Apparent Right ascension
Unknown
Apparent Declination
Unknown
Sunlit
N/A
Visualization observer readout
Local Sidereal Time
14:50:49
Azimuth
Unknown
Elevation
Unknown
Doppler factor
Unknown
Orbital elements
Apogee altitude
41,689.738 km
Perigee altitude
1,210.9 km
Semi-major axis
27,828.456 km
Eccentricity
0.72729
Inclination
27.707°
RAAN
1.3365°
Arg. of periapsis
173.1144°
True anomaly
186.93618°
Mean anomaly
209.7665°
Eccentric anomaly
197.34406°
Mean motion
0.46753 °/min
Orbital period
770 mins
BSTAR
0
Loading maneuver chart data...
Computing Atmospheric mass density...
Loading historical data...
Loading historical data...
Loading historical data...
Loading historical data...
Loading historical data...
Loading historical data...
Loading historical data...

Documentation

Showing up to 5 results
|